Overview Statistics Trail Chart Weather Telemetry Raw packets
 

This is the latest recevied weather packets stored in our database for station/object S56VIL-11. If no packets are shown the sender has not sent any weather packets the latest 10 day(s).

<< 27 28 29 30 31 32 33 >>
Time Temp. Humidity Pressure Rain* Wind** Luminosity Snow
1787976065 19.44° C 71% 1027.9 hPa - - - -
1787975162 18.89° C 72% 1027.9 hPa - - - -
1787974265 18.89° C 72% 1028 hPa - - - -
1787973362 19.44° C 71% 1028 hPa - - - -
1787971561 21.67° C 68% 1027.8 hPa - - - -
1787970664 21.11° C 69% 1027.7 hPa - - - -
1787969761 21.67° C 68% 1027.9 hPa - - - -
1787968864 21.11° C 69% 1027.8 hPa - - - -
1787967961 21.11° C 69% 1028 hPa - - - -
1787967064 21.11° C 69% 1028.1 hPa - - - -
1787966160 20° C 71% 1028 hPa - - - -
1787965263 20° C 71% 1027.9 hPa - - - -
1787964360 20° C 71% 1027.9 hPa - - - -
1787963463 18.33° C 73% 1027.9 hPa - - - -
1787962560 18.33° C 72% 1028 hPa - - - -
1787961663 17.78° C 73% 1028 hPa - - - -
1787960759 18.33° C 72% 1028 hPa - - - -
1787959862 18.89° C 72% 1028.2 hPa - - - -
1787958959 18.33° C 72% 1028.2 hPa - - - -
1787958062 17.78° C 72% 1028.2 hPa - - - -
1787957158 17.22° C 73% 1028.6 hPa - - - -
1787956261 17.22° C 73% 1028.8 hPa - - - -
1787955358 17.22° C 72% 1028.9 hPa - - - -
1787954461 17.78° C 72% 1028.8 hPa - - - -
1787953558 18.89° C 71% 1028.8 hPa - - - -

* Rain since midnight (hover to see other rain measurements)
** Current wind speed in m/s (hover to see current wind gust speed)